Theta_e
305 305 305 303 301 300 300 300 298 290 290 293 294 297 296 296 298 300 296 300 304 304 305 305 306 307 307 307 308 308 308 308 310 311 312 313 312 314
303 303 301 299 298 298 297 295 296 295 293 294 295 295 294 297 301 294 294 301 302 303 304 305 305 305 305 306 307 308 307 306 308 309 310 311 311 312
300 300 298 298 297 297 297 296 294 293 291 293 292 291 290 290 291 292 294 292 293 301 303 303 304 305 305 304 304 305 306 307 307 308 309 309 310 312
298 297 297 298 295 294 294 292 291 289 289 286 287 288 289 289 289 289 292 295 292 299 304 303 304 303 303 303 303 303 304 305 306 307 308 309 309 310
296 293 292 292 290 289 290 290 290 292 288 287 288 288 289 289 289 289 290 291 294 300 302 302 302 303 303 302 303 303 303 304 305 305 305 307 307 309
292 292 291 291 290 289 291 290 291 290 288 287 287 288 288 289 288 288 289 289 290 295 297 300 302 302 302 303 302 302 304 302 303 304 305 305 306 307
291 292 294 297 301 296 293 291 290 288 287 286 286 286 287 287 287 288 287 288 289 289 289 291 291 291 293 299 301 301 302 302 303 303 304 304 304 304
289 289 291 295 295 298 297 298 295 288 286 287 286 285 285 286 286 287 286 285 283 288 287 288 290 289 291 292 299 301 302 302 303 303 302 303 303 303
286 287 289 292 292 290 295 296 295 297 296 289 286 285 284 286 286 285 286 287 288 290 290 289 289 290 292 295 299 301 302 302 302 303 304 303 303 303
286 286 286 286 288 291 289 289 289 289 290 291 289 288 288 289 291 293 292 291 291 291 294 289 292 290 292 293 299 300 301 301 302 303 302 303 303 302
286 287 287 286 293 295 289 290 291 292 296 298 298 298 298 298 297 291 287 286 286 287 291 292 291 288 290 291 293 298 299 300 302 302 301 302 303 302
286 287 293 291 295 297 295 292 289 287 291 291 292 292 291 290 295 290 289 288 287 288 291 289 287 290 287 292 288 289 289 296 299 299 299 300 301 294
286 286 287 295 297 295 295 290 292 290 288 286 285 285 285 286 287 287 287 288 287 287 291 291 290 290 289 289 290 291 292 289 289 290 295 297 299 297
286 288 291 294 294 293 291 293 293 289 284 283 283 283 284 284 286 288 289 287 288 289 290 291 289 289 287 286 286 289 290 291 289 287 287 292 296 297
290 292 292 292 291 289 291 291 290 284 283 282 281 281 283 285 285 285 286 286 286 286 290 288 290 290 288 286 285 286 287 288 288 286 287 288 287 288
290 288 288 289 290 288 286 288 288 286 288 286 285 286 287 286 286 284 282 283 283 286 288 288 287 287 287 287 286 287 288 287 289 288 288 286 287 287
289 286 284 284 283 285 287 288 289 289 288 288 287 286 286 286 286 286 286 284 283 283 283 286 287 287 286 285 286 286 287 287 289 290 290 288 288 288
287 284 284 285 285 285 284 286 288 289 289 289 289 288 287 286 285 285 285 285 283 283 284 283 283 283 284 286 290 286 286 287 288 290 290 288 288 290
285 285 285 285 286 285 286 287 287 289 290 289 288 288 288 288 287 286 286 285 284 284 284 285 284 283 281 280 284 291 285 284 288 289 289 289 287 288
285 285 285 286 286 286 287 286 287 287 287 289 289 288 288 288 287 286 286 285 284 284 285 286 285 284 283 282 283 286 291 285 284 285 288 289 290 293
285 286 287 287 287 288 287 288 288 288 288 288 288 288 287 288 286 287 287 288 288 286 284 284 285 290 289 289 285 284 286 291 289 287 288 287 286 287
287 286 287 287 288 288 288 288 288 288 288 288 287 288 288 288 287 286 286 286 286 286 286 287 288 288 287 285 283 284 285 287 290 292 293 291 287 284
286 286 286 286 287 287 287 287 287 286 287 287 287 288 288 288 287 287 287 287 287 287 287 286 287 287 286 285 285 285 285 284 285 285 286 291 294 294
Wind_Speed
1 2 2 2 2 3 3 3 4 2 2 2 2 1 2 1 3 0 1 3 3 5 8 11 14 18 19 18 19 18 16 17 19 21 19 20 21 21
3 5 4 3 3 2 2 1 1 3 3 1 1 2 3 2 4 3 2 3 2 6 10 14 17 17 17 16 17 20 19 17 17 18 19 20 21 21
3 5 5 5 3 3 3 3 2 2 1 3 2 2 2 2 2 2 2 3 3 6 9 14 19 18 15 17 18 21 17 18 18 21 21 20 19 22
4 5 5 3 5 4 3 3 2 2 3 1 2 3 2 3 2 3 4 3 4 10 18 15 15 13 16 20 20 17 19 21 18 18 18 19 18 19
4 5 4 5 3 2 3 4 3 3 2 2 3 3 3 2 3 3 3 4 4 12 14 12 12 16 17 19 19 15 18 18 17 18 15 16 17 17
5 5 5 5 5 4 2 2 1 1 1 1 2 3 2 2 2 3 4 2 4 5 9 11 16 16 18 19 17 15 12 9 15 15 15 16 15 15
5 5 4 5 7 6 3 2 3 1 1 0 2 2 2 2 3 2 3 4 4 4 3 5 4 5 6 11 10 13 13 12 13 11 11 11 7 9
5 5 4 7 4 4 3 4 4 3 0 1 2 2 4 4 2 3 3 2 4 1 1 6 3 4 5 4 12 16 17 17 16 10 9 9 8 8
5 4 4 3 4 4 5 4 5 8 7 2 3 5 4 4 4 4 3 4 5 7 3 6 1 7 6 7 16 18 17 17 15 16 10 10 8 7
4 3 4 1 3 2 3 3 4 5 5 4 6 7 7 8 5 4 5 6 4 4 4 5 4 6 6 5 16 16 17 18 17 14 11 11 10 8
3 2 1 3 7 6 4 3 3 4 7 11 10 11 12 15 13 3 4 4 6 4 3 4 5 4 4 4 6 15 16 14 14 11 12 11 9 9
4 4 6 4 7 7 2 2 3 3 2 3 4 6 7 8 11 3 3 4 5 3 4 2 2 2 3 1 3 3 4 7 6 4 5 6 3 2
1 3 4 9 7 5 4 1 3 4 5 3 4 4 5 5 4 4 4 2 5 4 6 4 4 3 3 3 3 2 2 3 3 5 10 13 11 7
2 3 4 9 6 3 4 6 9 7 3 3 3 4 4 4 4 5 5 4 4 6 6 7 3 4 5 5 5 3 3 4 3 4 3 9 13 12
2 3 4 3 3 3 3 5 5 2 2 2 3 3 3 5 6 5 5 6 5 5 5 4 5 5 5 4 6 5 7 2 3 3 3 3 3 2
1 2 1 0 1 1 2 2 1 2 2 2 2 3 4 4 6 3 4 4 3 6 4 6 5 5 6 7 8 7 6 3 2 3 3 3 3 4
4 1 1 0 2 2 2 2 2 2 3 3 3 4 4 4 4 4 4 4 4 6 6 5 5 5 6 7 7 8 7 6 6 6 6 6 4 4
0 2 2 1 2 1 2 3 3 4 3 3 4 4 4 4 5 3 3 3 5 7 8 5 4 4 3 5 11 9 7 7 6 6 7 5 5 5
1 1 1 1 2 4 2 2 3 4 4 3 4 5 5 4 7 6 5 5 5 5 6 7 5 4 7 8 4 8 6 3 4 5 5 5 3 6
1 1 2 1 3 3 3 3 4 5 5 4 5 4 5 5 5 6 6 6 6 6 6 4 4 6 6 6 5 4 7 3 3 5 4 4 8 13
2 2 2 2 3 3 3 4 4 5 5 5 5 7 7 5 5 5 7 13 13 6 7 6 5 13 5 4 4 6 4 13 11 6 3 4 4 3
2 2 3 3 4 4 4 4 5 5 5 5 6 7 6 7 5 7 8 7 7 7 7 6 6 4 4 5 7 7 6 5 7 12 17 15 4 3
2 3 4 3 4 4 5 4 5 6 6 6 8 7 8 4 6 9 8 8 8 8 7 7 6 4 6 6 9 7 11 8 5 5 5 10 17 19
Wind_Direction
267 79 175 168 169 170 162 155 146 167 259 261 247 231 29 8 283 218 74 269 288 309 316 317 314 307 308 306 302 297 297 297 294 294 289 291 284 282
154 145 159 127 136 119 124 122 88 156 234 238 307 352 358 28 26 89 162 109 327 322 317 313 309 306 300 307 320 309 296 300 296 290 290 289 289 280
139 150 143 139 139 112 80 51 60 55 78 316 325 336 309 268 305 272 220 202 242 276 300 304 293 281 293 310 306 303 303 290 279 283 279 278 278 283
134 120 128 124 96 77 84 87 66 95 130 223 309 323 288 316 282 275 288 295 287 284 291 307 291 288 287 297 299 297 302 290 286 278 274 272 274 278
115 117 113 106 97 76 95 103 115 106 122 160 251 249 260 276 304 283 269 283 280 297 308 292 290 298 294 298 293 293 288 293 289 274 276 277 273 276
79 94 100 108 127 138 138 159 131 33 128 216 254 272 253 291 238 256 288 267 294 303 300 287 294 297 300 300 290 289 300 274 288 272 265 261 272 272
61 61 85 135 138 150 133 143 141 108 50 8 262 262 283 319 285 270 264 269 279 243 273 274 278 286 287 298 301 307 291 289 298 305 288 275 277 293
75 49 52 65 55 63 28 5 87 139 295 316 293 275 273 255 246 263 251 271 291 248 290 291 248 274 274 276 285 290 288 290 295 281 232 252 276 284
82 79 72 35 53 68 33 23 358 348 321 259 230 246 251 247 233 264 279 265 255 268 229 274 257 293 279 279 288 288 282 279 284 282 257 243 241 256
73 88 102 40 314 337 8 357 307 314 307 280 237 252 240 263 249 260 282 281 264 257 228 272 272 271 277 271 278 283 280 283 279 274 275 251 239 237
46 37 167 1 330 282 186 250 336 297 302 318 342 345 336 327 323 339 318 316 307 287 238 248 284 273 274 289 298 292 288 280 277 273 281 270 229 234
350 347 344 300 277 299 332 170 252 294 346 357 330 343 336 319 328 338 293 320 310 306 342 260 294 269 303 42 285 4 346 321 358 4 2 4 279 219
283 304 291 291 302 344 50 251 30 64 357 336 318 316 322 306 292 298 293 251 287 272 293 340 326 312 260 289 292 314 351 312 318 318 318 305 285 265
237 271 279 312 324 12 27 358 15 22 349 341 343 322 312 307 305 309 295 282 256 263 279 274 262 270 292 296 289 312 289 290 290 291 285 287 277 265
262 306 323 27 35 8 44 62 36 1 342 344 321 285 281 302 304 311 309 289 282 276 276 269 275 271 266 269 285 285 290 281 268 264 273 253 242 228
101 35 344 251 110 353 20 347 286 287 294 297 283 285 283 312 329 311 303 307 294 310 268 251 257 250 267 262 271 281 264 256 282 269 263 268 252 230
177 167 262 208 325 327 330 314 317 306 298 284 283 284 299 325 319 318 297 299 297 305 296 294 265 249 247 243 266 272 274 259 254 257 259 266 251 236
345 229 237 235 287 335 330 329 329 314 282 296 296 294 296 305 301 292 291 284 297 305 300 293 298 317 296 249 222 262 263 267 264 260 246 249 255 259
232 251 262 311 290 312 302 311 319 308 294 285 295 300 301 290 309 303 292 284 282 282 288 295 285 278 280 280 262 232 229 247 269 271 241 234 232 248
258 270 277 257 285 292 304 316 315 316 315 303 306 302 296 291 300 307 298 288 282 273 276 262 258 272 268 278 282 256 234 239 224 267 249 239 246 254
280 282 274 278 269 285 274 287 285 288 293 310 299 309 301 285 282 294 290 298 300 295 283 284 263 278 279 273 256 268 257 232 236 237 243 246 241 232
287 293 289 287 286 283 299 296 291 291 293 295 296 296 283 279 277 305 299 288 287 281 280 278 279 255 255 254 269 269 273 273 247 258 251 229 211 217
298 306 306 299 297 288 284 286 291 287 286 284 289 286 296 288 299 292 288 280 279 280 270 275 273 244 249 250 263 268 274 267 269 275 270 266 239 240